[[{"header":{"parameterUnit":"m.s-1","parameterCategory":1,"la1":30.2991,"la2":30.254,"lo1":-89.0895,"lo2":-89.0444,"dy":0.0017,"dx":0.0017,"nx":28,"ny":28,"refTime":"2024-06-26T09:00:00:Z","depth":0,"parameterNumber":2,"parameterNumberName":"U-component_of_WINDS"},"data":[0,0,0,0,0,0,0,0,0,0,0,0,0,0,0,0,0,0,0,0,0,0,0,0,0,0,0,0,0,0,0,0,0,0,0,0,0,0,0,0,0,0,0,0,0,0,0,0,0,0,0,0,0,0,0,0,0,0,2.8558,2.856,0,2.8698,2.87,2.8701,2.8728,2.8726,2.8725,2.8724,2.8874,2.8879,2.8884,0,0,0,0,0,0,0,0,0,0,0,0,0,2.8321,2.8325,2.8558,2.856,2.8561,2.8698,2.87,2.8702,2.8728,2.8726,2.8725,2.8724,2.8873,2.8879,2.8885,0,0,0,0,0,0,0,0,0,0,0,0,0,2.8439,2.8327,2.8558,2.8591,2.8595,2.8697,2.87,2.8702,2.8728,2.8726,2.8725,2.8723,2.8871,2.8878,2.8886,2.8967,0,0,2.8909,2.8912,0,0,0,0,0,0,0,0,2.8432,2.8448,2.8584,2.8589,2.8594,2.8693,2.8671,2.8791,2.8728,2.8678,2.8724,2.8722,2.8816,2.8828,2.8858,2.8974,2.898,2.8909,2.8914,2.8917,2.8919,0,0,0,0,0,0,0,2.8424,2.8442,2.8614,2.8586,2.8592,2.8601,2.8616,2.8694,2.8755,2.8682,2.8684,2.87,2.8818,2.8851,2.8862,2.8982,2.8909,2.8916,2.8921,2.8924,2.9175,2.9177,0,0,0,0,0,0,2.8409,2.8435,2.8609,2.8618,2.8507,2.8607,2.8623,2.8663,2.8754,2.8766,2.8701,2.8701,2.8839,2.8853,2.8867,2.897,2.8917,2.8924,2.8929,2.9173,2.9175,2.9178,0,0,0,0,0,0,2.8404,2.8424,2.8603,2.8527,2.855,2.8613,2.8657,2.8667,2.8699,2.8769,2.878,2.8723,2.8838,2.8857,2.8942,2.8976,2.8928,2.8935,2.917,2.9174,2.9176,2.9175,0,0,0,0,0,0,2.8397,2.8422,2.8452,2.8527,2.8554,2.8673,2.8659,2.8671,2.8712,2.8712,2.8792,2.8804,2.8838,2.893,2.8949,2.8985,2.8941,2.9168,2.9172,2.9175,2.9173,2.9178,2.9183,0,0,0,0,0,2.8388,2.8447,2.8453,2.8474,2.8592,2.8675,2.8691,2.8727,2.8714,2.8746,2.8791,2.8801,2.8969,2.8939,2.8961,2.8999,2.9166,2.9171,2.9175,2.917,2.9177,2.9183,0,0,0,0,0,0,2.8375,2.8457,2.8465,2.8549,2.8605,2.8679,2.872,2.8733,2.8795,2.8793,2.8838,2.8856,2.8939,2.8978,2.8943,2.9084,2.9067,2.9076,2.9056,2.9063,2.9068,2.9057,2.8947,0,0,0,0,0,2.8382,2.844,2.8509,2.8577,2.8604,2.8657,2.8695,2.8718,2.8778,2.8803,2.8854,2.8914,2.8981,2.9024,2.9089,2.9178,2.9198,2.9216,2.9221,2.9225,2.9233,2.9286,2.9296,2.9193,2.9193,2.9193,0,0,2.8396,2.8448,2.8483,2.8576,2.8621,2.8684,2.8677,2.8742,2.879,2.8813,2.8897,2.8937,2.9007,2.9096,2.9137,2.9131,2.9265,2.9231,2.9233,2.9239,2.9292,2.9301,2.931,2.9197,2.9196,2.9195,0,0,2.8455,2.8499,2.8561,2.8607,2.8676,2.8712,2.8726,2.88,2.8827,2.8911,2.893,2.8989,2.9101,2.9152,2.9192,2.9272,2.9285,2.9292,2.9319,2.937,2.9378,2.9385,2.9416,2.9426,2.9299,2.9299,2.9299,0,2.8466,2.8557,2.8592,2.8657,2.8699,2.8721,2.8787,2.883,2.8918,2.8947,2.8938,2.9081,2.913,2.9232,2.9251,2.9282,2.9303,2.9283,2.9373,2.9381,2.9389,2.9419,2.943,2.93,2.93,2.93,2.93,0,2.8568,2.8632,2.8674,2.8756,2.8803,2.8867,2.8915,2.8958,2.8978,2.9015,2.9102,2.9161,2.924,2.9265,2.9286,2.9371,2.9365,2.9364,2.9348,2.9398,2.9428,2.9439,2.9301,2.93,2.93,2.93,0,0,2.8622,2.8723,2.8739,2.8777,2.8856,2.8907,2.8974,2.9049,2.9086,2.9146,2.9206,2.9301,2.9301,2.9347,2.9374,2.9418,2.9481,2.9412,2.9415,2.9425,2.9582,2.9583,2.9596,2.9489,2.9492,2.9493,2.9577,0,2.8692,2.881,2.8844,2.8945,2.9006,2.9029,2.9088,2.9144,2.9181,2.924,2.9282,2.935,2.9343,2.9371,2.9416,2.9463,2.9513,2.9458,2.9548,2.9551,2.9531,2.961,2.9612,2.9687,2.9588,2.959,2.9591,0,2.8789,2.885,2.8955,2.9028,2.9055,2.9107,2.9179,2.9235,2.93,2.9324,2.9375,2.9398,2.9473,2.9451,2.9555,2.9517,2.9556,2.9585,2.9589,2.96,2.9575,2.9626,2.9712,2.9724,2.9609,2.9608,2.9606,0,2.8821,2.8929,2.9007,2.9039,2.9125,2.9161,2.9199,2.9263,2.9306,2.937,2.94,2.9472,2.9513,2.957,2.9613,2.9593,2.9715,2.9696,2.9739,2.9738,2.9765,2.9763,2.9861,2.9787,2.9787,2.9787,2.9787,0,2.8896,2.8961,2.9022,2.9071,2.9145,2.9185,2.9258,2.9297,2.9354,2.9412,2.9437,2.9492,2.9544,2.9607,2.9642,2.9725,2.9742,2.9766,2.9775,2.9765,2.9762,2.9792,2.9789,2.979,2.9789,2.9789,2.9788,0,2.8945,2.8988,2.9075,2.9149,2.9169,2.9221,2.9286,2.9335,2.9373,2.9447,2.9467,2.9527,2.9602,2.965,2.9747,2.977,2.9862,2.9868,2.9839,2.9843,2.9884,2.9881,3.0006,3.0026,2.9937,2.9938,2.9939,0,2.8991,2.9041,2.912,2.916,2.9198,2.9262,2.9306,2.9348,2.9394,2.9473,2.9514,2.959,2.9653,2.9773,2.9828,2.9902,2.9912,2.9951,2.9923,2.9913,2.9915,2.9912,2.9919,2.9956,2.9956,2.9957,2.9958,0,2.9069,2.9088,2.9149,2.9219,2.9271,2.9328,2.9386,2.9418,2.9471,2.9522,2.9598,2.9647,2.9745,2.9822,2.9901,2.9944,2.9961,2.9965,2.998,2.9971,2.9953,2.9965,2.9853,2.9963,2.9962,2.9962,2.9962,2.9961,2.9119,2.9165,2.9228,2.9297,2.9345,2.9398,2.9449,2.9492,2.9556,2.9638,2.9659,2.974,2.9807,2.9915,2.9959,3.0025,3.002,3.004,3.0046,3.0051,3.0052,2.9941,3.0039,3.0039,3.0039,3.0039,3.0039,0,2.92,2.9242,2.9304,2.9384,2.9438,2.9447,2.9512,2.9558,2.9627,2.9687,2.9749,2.9838,2.9913,2.9973,3.0051,3.0092,3.0102,3.0112,3.011,3.012,3.0051,3.0032,3.0102,3.0102,3.0102,3.0102,3.0102,3.0102,2.9248,2.9328,2.9355,2.946,2.9502,2.9579,2.9616,2.9667,2.9715,2.9812,2.9874,2.9912,2.9973,3.0056,3.0126,3.0142,3.0171,3.0179,3.0197,3.0132,3.0125,3.0118,3.01,3.0184,3.0184,3.0261,3.0261,3.0262]},{"header":{"parameterUnit":"m.s-1","parameterCategory":1,"la1":30.2991,"la2":30.254,"lo1":-89.0895,"lo2":-89.0444,"dy":0.0017,"dx":0.0017,"nx":28,"ny":28,"refTime":"2024-06-26T09:00:00:Z","depth":0,"parameterNumber":3,"parameterNumberName":"V-component_of_WINDS"},"data":[0,0,0,0,0,0,0,0,0,0,0,0,0,0,0,0,0,0,0,0,0,0,0,0,0,0,0,0,0,0,0,0,0,0,0,0,0,0,0,0,0,0,0,0,0,0,0,0,0,0,0,0,0,0,0,0,0,0,1.7583,1.7583,0,1.7604,1.7604,1.7604,1.7569,1.7568,1.7567,1.7566,1.7587,1.7589,1.7591,0,0,0,0,0,0,0,0,0,0,0,0,0,1.7512,1.7513,1.7583,1.7583,1.7583,1.7604,1.7604,1.7604,1.757,1.7568,1.7567,1.7565,1.7587,1.7589,1.7591,0,0,0,0,0,0,0,0,0,0,0,0,0,1.7539,1.7514,1.7583,1.7569,1.7568,1.7604,1.7604,1.7604,1.757,1.7568,1.7566,1.7565,1.7586,1.7589,1.7591,1.7642,0,0,1.7599,1.76,0,0,0,0,0,0,0,0,1.7537,1.7541,1.757,1.757,1.7568,1.7582,1.7587,1.7617,1.757,1.7569,1.7566,1.7564,1.7587,1.7589,1.7597,1.7643,1.7644,1.7599,1.76,1.7602,1.7602,0,0,0,0,0,0,0,1.7535,1.754,1.7591,1.7571,1.757,1.7561,1.7563,1.7592,1.7588,1.7569,1.7567,1.7569,1.7586,1.7595,1.7597,1.7644,1.7599,1.7601,1.7603,1.7604,1.7729,1.7731,0,0,0,0,0,0,1.7535,1.7539,1.759,1.7592,1.7548,1.7563,1.7565,1.758,1.7587,1.7587,1.7571,1.7568,1.7591,1.7595,1.7598,1.7655,1.7602,1.7604,1.7605,1.7728,1.773,1.7732,0,0,0,0,0,0,1.7534,1.754,1.759,1.7565,1.757,1.7566,1.7583,1.7581,1.7589,1.7589,1.7588,1.7581,1.759,1.7595,1.763,1.7656,1.7605,1.7607,1.7725,1.7728,1.7731,1.7773,0,0,0,0,0,0,1.7532,1.754,1.756,1.7565,1.7572,1.7622,1.7584,1.7583,1.7594,1.759,1.7598,1.7597,1.7589,1.7627,1.7633,1.7658,1.7609,1.7723,1.7727,1.773,1.7769,1.7776,1.7783,0,0,0,0,0,1.753,1.7572,1.7561,1.7567,1.7596,1.7624,1.7627,1.7617,1.7596,1.7615,1.7614,1.7597,1.7653,1.7631,1.7637,1.7664,1.7721,1.7726,1.773,1.7766,1.7775,1.7783,0,0,0,0,0,0,1.757,1.7572,1.756,1.7605,1.7615,1.7618,1.7642,1.7628,1.7643,1.7639,1.7626,1.7628,1.7666,1.7669,1.7645,1.7712,1.7683,1.7689,1.7708,1.7717,1.7724,1.7722,1.7611,0,0,0,0,0,1.7584,1.7606,1.7607,1.7647,1.7652,1.7646,1.7658,1.7649,1.7658,1.7662,1.7664,1.7673,1.7692,1.7705,1.7723,1.777,1.7769,1.7791,1.7798,1.7804,1.7808,1.783,1.7839,1.7745,1.7745,1.7745,0,0,1.7613,1.7617,1.7632,1.7655,1.7661,1.7683,1.765,1.7676,1.7692,1.7666,1.7699,1.7701,1.771,1.7751,1.7769,1.7754,1.7834,1.7809,1.7814,1.7815,1.7835,1.7844,1.7852,1.7748,1.7748,1.7747,0,0,1.7677,1.7684,1.7716,1.7722,1.7731,1.7727,1.7735,1.774,1.774,1.7773,1.7753,1.7772,1.7806,1.7813,1.7821,1.7885,1.7869,1.7892,1.7927,1.7949,1.7956,1.7963,1.7983,1.7991,1.7896,1.7897,1.7897,0,1.7712,1.7746,1.7734,1.776,1.777,1.7747,1.7778,1.7785,1.78,1.7807,1.779,1.7831,1.7836,1.7876,1.7892,1.79,1.7907,1.789,1.7956,1.7963,1.7968,1.7988,1.7996,1.7899,1.7899,1.7898,1.7898,0,1.7787,1.781,1.7835,1.7848,1.7861,1.789,1.7882,1.7896,1.7886,1.7883,1.7915,1.7921,1.7938,1.7947,1.7938,1.7986,1.7976,1.7959,1.7929,1.798,1.7998,1.8005,1.7903,1.7902,1.7901,1.79,0,0,1.7877,1.7882,1.7891,1.7896,1.7904,1.7921,1.7948,1.7964,1.7975,1.7986,1.8007,1.8036,1.8019,1.8028,1.8019,1.8039,1.8086,1.8018,1.8018,1.8028,1.8135,1.8147,1.8156,1.8076,1.8077,1.8078,1.8134,0,1.7938,1.7984,1.7974,1.8019,1.8039,1.8017,1.804,1.8047,1.8045,1.8061,1.8059,1.8078,1.8055,1.806,1.8078,1.8076,1.8107,1.8072,1.8093,1.8094,1.8089,1.8166,1.8178,1.8231,1.8141,1.8142,1.8143,0,1.8016,1.8028,1.8075,1.8077,1.8085,1.8106,1.8119,1.8135,1.8142,1.8139,1.8148,1.8135,1.816,1.8132,1.8166,1.8143,1.8151,1.8151,1.8153,1.8152,1.812,1.8165,1.8247,1.8254,1.8154,1.8154,1.8153,0,1.8074,1.8102,1.8133,1.8138,1.8142,1.8157,1.8159,1.8164,1.8173,1.8185,1.819,1.8205,1.8212,1.8223,1.8214,1.8195,1.8249,1.822,1.8245,1.8246,1.8256,1.8255,1.8338,1.8266,1.8266,1.8265,1.8265,0,1.8142,1.8171,1.8158,1.8177,1.8208,1.8195,1.8226,1.8226,1.823,1.8248,1.8231,1.8247,1.8235,1.8251,1.8244,1.8272,1.8276,1.8273,1.8271,1.8273,1.8273,1.8277,1.8272,1.8267,1.8267,1.8267,1.8266,0,1.8211,1.8204,1.8235,1.8236,1.8236,1.8259,1.8259,1.8276,1.8272,1.8294,1.8299,1.8293,1.831,1.8302,1.8321,1.8316,1.8351,1.8345,1.8349,1.8346,1.8371,1.8368,1.8457,1.8467,1.839,1.8391,1.8392,0,1.8253,1.8275,1.8277,1.8287,1.829,1.8307,1.8316,1.8305,1.8315,1.8323,1.8338,1.8354,1.8365,1.8394,1.8391,1.8404,1.8397,1.8427,1.8399,1.84,1.8394,1.8392,1.8393,1.8433,1.8433,1.8434,1.8435,0,1.8329,1.8324,1.8338,1.835,1.8361,1.837,1.8378,1.8387,1.8375,1.8388,1.8404,1.8413,1.8431,1.8446,1.8458,1.846,1.8445,1.8444,1.845,1.8452,1.8452,1.845,1.8362,1.8442,1.8441,1.844,1.844,1.844,1.8385,1.8401,1.8404,1.842,1.8424,1.8431,1.8446,1.8443,1.8457,1.847,1.8463,1.8482,1.8486,1.85,1.8504,1.8518,1.8506,1.8515,1.8517,1.8519,1.8521,1.8452,1.852,1.852,1.852,1.852,1.852,0,1.8457,1.8458,1.8472,1.8482,1.8493,1.8479,1.8486,1.8496,1.8513,1.8518,1.8529,1.8548,1.8562,1.856,1.8572,1.8584,1.8577,1.8587,1.8585,1.8585,1.8533,1.8525,1.8592,1.8592,1.8592,1.8592,1.8592,1.8592,1.8496,1.8522,1.8517,1.8545,1.8546,1.8564,1.8569,1.8575,1.8578,1.8599,1.861,1.8609,1.8611,1.8623,1.8635,1.8633,1.8638,1.865,1.8646,1.8597,1.8589,1.8582,1.8575,1.8652,1.8652,1.8697,1.8698,1.8698]}]]